Wind_Speed
9 9 9 10 11 11 12 13 13 13 13 13 13 12 12 13 13 13 13 13 13 13 13 12 11 10 9 9 8 8 7 5 4 3 2 1 2 4 5 6 7 9 10 11
10 9 9 9 10 10 11 12 13 12 12 12 13 12 12 12 13 13 13 13 13 13 12 12 12 11 10 10 10 9 8 6 5 4 3 1 1 3 4 5 7 8 9 10
9 9 8 9 9 10 10 11 12 12 12 12 12 13 13 12 13 13 13 13 13 13 13 13 13 12 11 10 10 10 8 7 6 5 4 2 1 1 2 4 5 7 8 9
8 8 9 8 9 9 11 11 12 12 13 12 12 13 14 13 13 13 13 13 13 12 13 13 13 13 12 11 11 10 9 8 7 6 5 3 1 0 2 3 4 6 7 8
9 9 9 8 8 9 10 11 11 10 11 12 12 13 13 14 14 14 13 13 13 12 11 12 13 13 13 12 11 11 10 9 8 7 5 4 2 1 0 2 3 4 6 7
9 9 9 8 8 8 9 10 10 10 10 11 12 13 13 13 13 14 14 13 13 12 11 12 12 13 13 13 12 12 11 10 9 8 6 5 3 2 1 0 1 3 4 5
9 9 9 9 8 9 9 9 10 10 10 11 11 13 12 12 12 13 13 13 12 12 11 11 13 13 13 12 12 12 11 11 10 9 7 5 4 3 2 1 0 1 2 3
10 10 10 10 8 9 9 10 11 11 10 10 12 12 12 12 12 12 13 13 13 12 12 12 13 13 12 12 12 12 11 11 11 10 8 6 5 4 3 2 1 0 1 2
10 11 11 10 9 9 11 11 11 11 10 9 11 12 11 11 12 12 12 12 12 12 12 13 13 12 13 12 12 12 12 11 11 10 9 8 6 5 4 3 2 1 0 1
10 10 10 10 9 9 10 10 10 10 10 9 9 10 11 11 11 11 11 12 13 13 13 12 12 12 13 12 12 12 12 12 11 10 10 9 8 6 5 4 3 3 2 1
11 10 10 10 9 9 9 9 9 10 10 10 11 11 11 12 12 11 12 13 14 14 14 13 13 12 12 12 13 12 12 12 12 11 10 10 9 8 6 5 4 4 4 3
10 10 10 10 10 10 9 9 10 10 10 10 11 12 12 13 13 13 13 13 13 14 14 14 14 13 12 13 13 13 13 13 13 12 12 11 10 9 8 7 6 5 5 5
11 10 10 11 10 10 9 10 11 11 11 11 11 11 12 13 13 13 12 13 13 13 14 14 15 14 14 14 14 14 14 14 13 13 12 12 11 10 10 8 8 7 7 7
11 11 11 11 11 10 10 11 11 11 12 11 12 12 12 12 13 12 12 12 14 14 14 14 15 15 15 15 15 14 14 14 14 13 13 12 12 11 10 9 9 9 8 8
12 11 11 12 11 11 11 11 11 12 12 12 12 13 13 12 12 13 13 13 14 14 14 15 15 15 15 15 16 15 15 15 15 15 14 13 13 12 12 11 10 10 10 10
13 12 11 11 11 11 11 11 11 11 12 13 13 12 13 12 12 12 13 13 13 15 15 15 15 15 15 15 16 16 16 16 16 16 15 14 14 13 13 13 12 12 12 12
15 14 13 11 11 10 10 10 10 11 12 13 12 12 12 12 12 12 12 12 13 14 15 16 16 15 15 15 16 16 16 16 16 16 16 15 15 15 15 15 14 14 14 14
17 15 14 12 11 11 10 10 10 11 11 12 11 12 12 12 11 11 12 12 12 13 14 15 15 15 16 16 17 17 17 17 16 16 16 16 16 16 16 16 16 16 16 16
18 16 15 14 13 12 11 11 11 11 11 11 11 12 12 12 12 12 12 12 12 13 13 14 15 15 16 17 17 17 17 17 17 18 18 17 17 17 17 18 18 18 18 18
19 17 16 15 14 13 11 12 12 11 11 11 12 11 12 12 12 12 12 12 11 12 12 12 13 14 16 16 17 17 17 18 18 18 18 19 19 19 19 19 20 20 20 20
20 19 18 16 15 14 13 12 12 12 12 13 13 12 12 12 13 13 13 13 12 13 12 12 13 13 15 15 16 15 16 18 18 19 19 20 20 20 20 20 20 20 20 20
21 20 19 18 17 15 14 14 13 13 13 13 13 13 13 13 13 13 13 13 13 13 13 13 14 15 15 16 16 17 18 19 19 19 20 20 21 21 21 21 21 21 21 21
24 22 21 20 18 16 16 15 15 14 14 13 13 13 13 13 14 15 14 14 14 15 15 15 16 17 17 17 18 18 19 19 19 20 20 21 21 21 21 21 22 22 22 22
25 24 23 21 20 19 17 17 17 16 15 15 15 15 15 15 15 16 16 15 15 16 16 17 17 17 17 17 18 19 19 19 20 20 21 22 22 22 22 22 22 23 23 24
26 25 24 23 21 21 19 18 18 18 17 16 17 16 16 16 16 16 17 17 16 16 16 17 17 17 17 17 18 19 20 20 21 21 21 22 22 22 23 23 24 24 25 25
27 26 25 23 22 22 21 21 20 19 19 18 18 18 17 17 17 17 18 18 17 17 17 18 18 18 19 19 19 20 21 21 21 21 22 23 23 24 24 25 25 26 26 27
Wind_Direction
250 249 248 249 249 246 239 237 238 234 229 226 223 224 223 216 214 212 214 215 213 214 215 212 210 212 214 211 202 200 197 192 182 169 157 106 44 36 39 45 48 48 48 47
249 247 248 252 252 247 240 236 233 231 226 226 225 224 224 218 215 216 219 218 214 214 216 217 213 212 213 206 200 202 199 198 192 185 182 167 58 41 42 44 48 50 50 49
243 245 247 249 247 247 236 232 227 223 223 221 223 223 224 221 216 216 214 214 214 218 220 219 214 211 208 203 201 201 199 201 200 197 194 187 160 50 46 46 49 49 49 49
239 240 243 247 241 239 233 229 225 220 216 216 221 222 224 220 217 216 214 212 213 216 221 216 209 207 204 204 205 203 202 204 204 203 199 199 199 100 54 53 51 48 49 50
233 239 242 244 241 234 232 226 220 216 211 215 219 220 220 218 217 215 216 213 215 219 222 220 214 209 208 208 208 204 206 207 208 207 202 205 209 211 74 55 49 45 46 50
232 239 239 238 234 226 225 224 217 212 211 217 219 218 214 216 218 217 216 215 218 220 220 219 215 212 211 210 209 206 207 207 208 207 204 205 209 215 212 61 41 40 45 50
228 234 233 233 229 226 223 217 213 214 217 222 222 220 218 216 218 220 218 214 216 218 219 213 211 214 215 214 208 207 208 208 208 208 203 204 207 212 218 236 330 27 48 55
224 226 228 228 228 226 218 213 214 216 220 224 223 221 220 216 218 218 218 217 218 219 217 213 215 217 215 213 211 208 209 211 209 209 207 207 210 213 220 239 256 292 51 52
226 228 230 229 225 222 215 213 214 217 215 222 220 219 217 215 215 215 216 218 220 221 215 214 215 219 219 215 213 209 209 212 212 214 214 212 215 219 226 236 242 241 266 16
227 228 229 226 228 228 218 212 215 215 218 220 215 213 212 212 215 217 220 218 219 219 217 216 216 218 217 214 213 212 214 217 216 217 216 217 219 221 227 236 242 246 258 288
227 226 227 226 227 225 219 220 219 218 218 218 216 214 212 214 217 221 224 220 217 215 216 218 221 221 220 219 218 218 218 218 218 220 222 221 222 222 227 233 240 250 262 276
221 220 222 225 225 224 221 221 220 221 224 221 222 220 217 221 221 223 224 221 216 214 218 222 223 222 223 223 222 220 220 219 220 222 224 226 229 228 230 234 241 252 260 271
217 218 222 224 228 226 225 225 225 224 222 222 226 225 215 219 221 223 222 220 220 222 223 224 224 223 225 227 225 222 223 223 223 226 229 231 233 234 235 239 246 253 260 268
219 220 223 226 228 229 233 230 228 224 222 224 223 216 213 219 224 226 227 227 225 227 227 226 227 226 226 225 226 227 226 225 226 228 230 234 234 236 238 244 252 258 265 270
222 222 223 226 230 234 236 232 230 225 221 219 217 218 221 226 228 228 231 232 230 230 230 228 228 228 227 226 228 230 228 228 231 234 234 238 240 240 244 249 254 259 264 269
224 227 229 233 236 239 240 236 235 230 221 217 219 222 227 230 229 228 232 234 234 232 231 229 229 230 231 231 231 231 231 231 232 235 239 243 246 247 248 252 256 260 264 268
223 226 230 235 239 241 244 240 235 228 221 222 224 229 232 233 232 232 234 235 235 234 232 230 230 231 231 233 233 234 235 234 235 238 240 245 249 250 251 254 258 260 263 268
223 227 231 233 235 238 237 237 233 228 223 221 223 227 231 233 233 235 237 236 233 232 230 231 232 231 233 234 234 236 238 239 241 243 245 248 252 254 255 257 258 262 265 268
223 228 232 235 238 240 237 235 233 233 231 227 226 228 231 232 232 234 239 238 233 231 229 231 235 236 236 236 236 235 238 240 243 245 247 250 253 255 256 258 261 265 267 269
226 230 233 235 238 237 234 232 232 235 232 227 228 233 235 234 236 239 239 238 235 235 235 236 237 237 238 239 239 238 240 244 245 247 250 253 255 258 259 260 264 268 269 270
228 231 233 235 238 237 233 232 231 229 227 227 231 235 235 235 237 240 241 240 239 239 239 239 240 242 242 242 242 241 244 247 249 250 253 256 260 261 262 263 267 270 272 273
227 230 232 234 237 236 235 231 230 231 232 231 234 236 236 237 240 242 245 245 245 245 242 241 243 246 247 246 246 248 250 251 253 255 257 259 263 264 265 266 267 270 273 274
228 229 232 235 237 237 236 234 234 235 236 235 236 239 239 240 243 244 245 247 247 246 247 247 249 248 248 249 250 253 255 254 256 257 258 260 262 264 266 267 268 271 273 274
228 230 231 233 235 236 237 236 235 237 239 239 239 241 242 245 249 249 248 251 251 249 248 249 251 251 251 252 253 255 256 257 259 259 259 259 261 263 265 266 269 271 273 274
228 229 231 234 235 236 238 239 239 239 241 242 242 242 242 246 251 254 255 255 255 253 252 252 252 254 255 256 257 258 258 258 259 259 260 260 261 264 266 267 269 272 273 274
228 230 233 235 236 237 237 238 239 240 242 243 243 242 242 245 251 255 256 256 256 256 256 256 257 258 259 260 261 263 262 260 261 262 263 263 264 266 267 269 271 273 274 274
Height
5855 5857 5857 5858 5858 5859 5860 5861 5863 5864 5866 5867 5869 5871 5872 5874 5876 5878 5880 5881 5883 5885 5886 5888 5890 5891 5892 5894 5895 5896 5896 5897 5897 5897 5897 5896 5895 5894 5893 5891 5889 5887 5886 5884
5854 5854 5855 5855 5856 5856 5857 5859 5860 5862 5863 5865 5867 5869 5870 5872 5874 5876 5878 5879 5881 5883 5885 5886 5888 5890 5891 5892 5893 5895 5896 5896 5896 5897 5897 5896 5896 5895 5894 5892 5890 5889 5887 5885
5851 5853 5852 5853 5854 5855 5855 5857 5858 5859 5861 5863 5865 5867 5869 5870 5872 5874 5876 5877 5879 5881 5883 5884 5886 5888 5890 5891 5892 5894 5895 5896 5896 5896 5896 5896 5896 5895 5894 5893 5892 5890 5888 5887
5849 5850 5850 5851 5852 5852 5854 5855 5856 5858 5859 5861 5864 5866 5867 5868 5870 5871 5873 5875 5878 5879 5881 5883 5884 5886 5888 5889 5891 5892 5894 5895 5895 5896 5896 5896 5896 5895 5895 5894 5893 5891 5890 5888
5847 5847 5848 5849 5850 5851 5852 5853 5854 5856 5858 5860 5862 5864 5866 5866 5868 5870 5872 5874 5876 5878 5879 5881 5883 5885 5887 5888 5890 5891 5893 5894 5895 5895 5896 5896 5896 5895 5895 5894 5893 5892 5891 5890
5845 5845 5846 5847 5848 5849 5850 5852 5853 5854 5856 5858 5860 5862 5864 5865 5866 5868 5870 5872 5874 5876 5878 5879 5881 5883 5885 5886 5888 5890 5891 5892 5893 5894 5895 5895 5895 5895 5895 5895 5894 5893 5892 5891
5843 5844 5844 5845 5846 5847 5849 5851 5853 5854 5855 5857 5858 5860 5862 5863 5864 5866 5868 5870 5872 5874 5876 5877 5879 5882 5883 5885 5886 5888 5890 5891 5892 5893 5894 5894 5895 5895 5895 5895 5894 5894 5893 5892
5841 5842 5843 5844 5845 5846 5847 5849 5852 5853 5854 5855 5856 5858 5861 5861 5862 5864 5866 5868 5870 5872 5874 5876 5878 5880 5881 5883 5885 5887 5888 5890 5891 5892 5893 5894 5894 5894 5895 5895 5894 5894 5893 5893
5839 5840 5841 5842 5843 5845 5846 5847 5849 5851 5852 5853 5855 5856 5858 5859 5861 5862 5864 5866 5869 5871 5872 5874 5876 5878 5880 5881 5883 5885 5887 5888 5890 5891 5892 5893 5893 5894 5894 5894 5894 5894 5893 5893
5837 5838 5839 5840 5842 5843 5844 5845 5847 5849 5850 5852 5853 5855 5857 5858 5859 5861 5863 5864 5866 5868 5870 5872 5874 5876 5877 5879 5881 5883 5885 5886 5888 5889 5890 5892 5892 5893 5893 5894 5894 5893 5893 5893
5835 5837 5838 5839 5840 5841 5843 5844 5845 5847 5849 5850 5852 5855 5855 5856 5858 5859 5861 5862 5864 5866 5868 5870 5872 5874 5875 5877 5879 5881 5883 5884 5886 5888 5889 5890 5891 5892 5892 5892 5892 5893 5892 5892
5833 5835 5836 5838 5838 5839 5841 5842 5844 5846 5847 5848 5850 5854 5852 5854 5855 5857 5858 5860 5862 5864 5866 5868 5870 5872 5873 5875 5877 5879 5880 5882 5884 5886 5887 5888 5889 5890 5891 5891 5891 5891 5891 5891
5831 5833 5835 5836 5839 5838 5839 5840 5841 5843 5844 5846 5848 5852 5850 5852 5853 5855 5856 5858 5860 5861 5863 5865 5867 5869 5871 5873 5874 5876 5878 5880 5882 5883 5885 5886 5887 5888 5889 5889 5889 5890 5890 5889
5828 5830 5833 5835 5835 5836 5837 5838 5839 5840 5842 5844 5845 5847 5848 5850 5851 5852 5854 5855 5857 5859 5861 5863 5864 5866 5868 5870 5872 5873 5875 5877 5879 5881 5882 5883 5885 5886 5886 5887 5887 5888 5888 5887
5826 5828 5829 5831 5832 5833 5834 5835 5836 5838 5839 5841 5843 5844 5846 5847 5849 5850 5851 5853 5854 5856 5858 5860 5862 5863 5865 5867 5869 5871 5873 5875 5876 5878 5879 5881 5882 5883 5884 5884 5885 5885 5885 5885
5823 5825 5827 5829 5829 5830 5831 5832 5834 5835 5837 5838 5840 5842 5843 5844 5846 5847 5848 5850 5851 5853 5855 5857 5859 5860 5862 5864 5866 5868 5869 5871 5873 5875 5876 5877 5879 5880 5880 5881 5882 5882 5882 5882
5820 5823 5825 5826 5827 5828 5829 5830 5831 5833 5834 5836 5837 5840 5840 5842 5843 5845 5846 5847 5848 5850 5852 5853 5855 5857 5859 5861 5863 5864 5866 5868 5870 5871 5873 5874 5875 5876 5877 5878 5878 5879 5879 5879
5817 5819 5821 5823 5825 5826 5829 5828 5829 5830 5831 5833 5835 5836 5837 5839 5840 5842 5843 5844 5845 5847 5848 5850 5852 5854 5855 5857 5859 5861 5862 5864 5866 5867 5869 5870 5871 5872 5873 5874 5874 5874 5874 5874
5813 5816 5818 5820 5821 5823 5825 5825 5826 5827 5829 5830 5832 5833 5834 5836 5837 5839 5840 5841 5842 5844 5845 5847 5848 5850 5852 5853 5855 5857 5858 5860 5862 5864 5865 5866 5866 5867 5868 5869 5869 5870 5870 5870
5809 5812 5815 5817 5818 5820 5823 5823 5823 5826 5826 5828 5829 5830 5831 5833 5835 5837 5837 5838 5839 5841 5842 5843 5845 5846 5848 5849 5851 5853 5854 5856 5858 5859 5860 5861 5862 5863 5864 5864 5864 5865 5865 5865
5805 5808 5810 5813 5814 5816 5819 5819 5821 5824 5825 5825 5826 5827 5828 5830 5832 5833 5834 5835 5836 5837 5839 5840 5841 5843 5844 5846 5847 5849 5850 5852 5853 5854 5855 5856 5857 5858 5858 5859 5859 5859 5859 5859
5801 5803 5806 5808 5811 5815 5815 5816 5818 5819 5820 5821 5823 5824 5825 5827 5828 5829 5830 5831 5833 5834 5835 5836 5837 5839 5840 5841 5843 5845 5846 5847 5848 5849 5850 5851 5852 5852 5853 5853 5853 5853 5853 5853
5795 5799 5801 5805 5809 5810 5810 5812 5814 5815 5817 5818 5819 5821 5822 5823 5824 5826 5827 5828 5829 5830 5831 5832 5833 5834 5836 5837 5838 5839 5840 5841 5843 5844 5845 5845 5846 5846 5847 5847 5847 5847 5847 5846
5790 5793 5796 5799 5802 5804 5806 5808 5809 5811 5813 5814 5816 5817 5818 5819 5821 5822 5823 5824 5825 5826 5827 5828 5829 5830 5831 5832 5833 5834 5835 5836 5837 5838 5838 5839 5839 5840 5840 5840 5840 5840 5840 5840
5784 5787 5790 5793 5797 5799 5801 5803 5805 5807 5808 5810 5811 5813 5814 5815 5816 5817 5818 5819 5820 5821 5822 5823 5824 5825 5826 5827 5828 5829 5829 5830 5831 5831 5832 5832 5833 5833 5833 5834 5833 5833 5833 5832
5778 5782 5785 5788 5792 5794 5796 5798 5800 5802 5804 5805 5807 5808 5809 5810 5811 5812 5813 5814 5815 5816 5817 5818 5819 5820 5821 5822 5822 5823 5824 5824 5824 5825 5825 5825 5826 5826 5826 5826 5826 5825 5825 5824